Total_Precipitation_Accumulation
0.08 0.13 0.19 0.23 0.20 0.16 0.12 0.10 0.16 0.26 0.44 0.58 0.68 0.73 0.78 0.78 0.72 0.69 0.71 0.71 0.66 0.67 0.73 0.84 1.00 1.10 1.23 1.29 1.51 1.64 1.89 2.04 2.08 2.17 2.19 2.21 2.32 2.33 2.25 2.28 2.32 2.49 2.52 2.55
0.06 0.09 0.13 0.16 0.19 0.14 0.11 0.10 0.12 0.24 0.49 0.58 0.63 0.68 0.77 0.75 0.74 0.73 0.72 0.73 0.79 0.83 0.85 0.88 0.95 1.06 1.16 1.24 1.52 1.81 2.06 2.29 2.34 2.39 2.38 2.48 2.63 2.69 2.60 2.59 2.71 2.72 2.60 2.54
0.10 0.13 0.13 0.18 0.18 0.16 0.18 0.17 0.21 0.31 0.47 0.56 0.65 0.73 0.92 0.91 0.85 0.85 0.87 0.88 0.94 1.05 1.04 1.01 1.05 1.11 1.21 1.35 1.59 1.86 2.10 2.33 2.50 2.57 2.63 2.74 2.84 2.85 2.80 2.90 3.08 3.06 2.89 2.71
0.15 0.22 0.26 0.23 0.23 0.22 0.27 0.29 0.34 0.43 0.47 0.63 0.85 0.96 1.16 1.21 1.06 1.01 0.93 0.90 0.97 1.14 1.18 1.15 1.16 1.22 1.38 1.59 1.86 2.15 2.35 2.48 2.59 2.65 2.70 2.78 2.85 2.73 2.77 2.94 3.02 3.03 2.92 2.78
0.25 0.30 0.30 0.33 0.36 0.38 0.43 0.57 0.57 0.66 0.75 0.86 0.99 1.03 1.18 1.07 0.93 0.91 0.92 1.00 1.11 1.23 1.32 1.39 1.44 1.50 1.58 1.75 1.99 2.26 2.47 2.51 2.52 2.62 2.71 2.77 2.81 2.83 2.86 2.89 2.78 2.67 2.57 2.55
0.39 0.42 0.47 0.51 0.54 0.49 0.58 1.06 1.09 1.08 1.03 1.01 1.08 1.31 1.31 1.07 0.93 0.96 1.04 1.10 1.21 1.23 1.28 1.40 1.51 1.55 1.67 1.87 2.11 2.32 2.50 2.53 2.53 2.67 2.78 2.81 2.89 2.94 2.89 2.81 2.72 2.63 2.48 2.46
0.56 0.62 0.60 0.56 0.53 0.55 0.96 1.31 1.23 1.19 1.21 1.16 1.29 1.35 1.31 1.19 1.14 1.09 1.11 1.21 1.26 1.31 1.30 1.35 1.47 1.58 1.72 1.86 2.02 2.18 2.37 2.50 2.66 2.84 2.92 2.93 2.97 2.89 2.82 2.73 2.74 2.70 2.56 2.45
0.76 0.96 1.05 0.74 0.63 0.92 1.25 1.09 1.22 1.35 1.32 1.31 1.29 1.22 1.24 1.26 1.26 1.21 1.15 1.24 1.30 1.36 1.46 1.53 1.60 1.64 1.75 1.77 1.89 2.10 2.17 2.31 2.41 2.57 2.70 2.73 2.80 2.77 2.82 2.76 2.65 2.55 2.43 2.29
1.07 1.21 1.03 0.86 0.91 1.05 1.10 1.19 1.26 1.43 1.51 1.44 1.47 1.39 1.28 1.34 1.30 1.44 1.52 1.51 1.50 1.42 1.46 1.52 1.61 1.70 1.81 1.84 1.83 1.89 2.00 2.16 2.33 2.43 2.60 2.71 2.74 2.74 2.69 2.60 2.43 2.27 2.17 2.07
1.34 1.38 1.21 1.14 1.10 1.06 1.08 1.20 1.29 1.43 1.54 1.62 1.58 1.45 1.37 1.35 1.27 1.26 1.34 1.37 1.47 1.42 1.46 1.65 1.58 1.61 1.74 1.84 1.84 1.89 1.98 2.05 2.17 2.26 2.36 2.58 2.65 2.57 2.44 2.24 2.11 2.07 2.03 2.04
1.56 1.61 1.38 1.30 1.24 1.30 1.31 1.28 1.27 1.37 1.47 1.53 1.45 1.39 1.41 1.46 1.32 1.26 1.26 1.24 1.25 1.26 1.31 1.43 1.45 1.48 1.57 1.68 1.74 1.74 1.76 1.77 1.79 1.96 2.12 2.27 2.32 2.25 2.11 1.98 2.06 2.08 2.03 1.99
1.84 1.65 1.61 1.63 1.51 1.49 1.59 1.56 1.52 1.56 1.72 1.70 1.48 1.40 1.35 1.32 1.25 1.15 1.11 1.17 1.17 1.17 1.17 1.24 1.33 1.45 1.54 1.71 1.84 1.86 1.82 1.76 1.68 1.66 1.77 1.98 2.19 2.25 2.13 1.90 1.92 1.87 1.80 1.75
1.63 1.56 1.62 1.68 1.72 1.75 1.85 1.80 1.74 1.76 1.80 1.74 1.59 1.49 1.32 1.23 1.14 1.09 1.03 1.07 1.15 1.22 1.27 1.37 1.36 1.31 1.38 1.57 1.78 1.90 1.82 1.78 1.69 1.61 1.65 1.78 2.01 2.23 2.33 2.12 1.88 1.73 1.54 1.39
1.50 1.62 1.85 1.88 1.93 1.92 1.87 1.88 1.89 1.94 1.86 1.80 1.67 1.47 1.35 1.35 1.27 1.17 1.12 1.18 1.31 1.43 1.48 1.49 1.46 1.45 1.42 1.46 1.59 1.67 1.65 1.64 1.52 1.45 1.53 1.66 1.89 2.17 2.33 2.28 2.09 1.80 1.50 1.31
1.72 1.71 1.76 1.73 1.84 1.86 1.85 1.89 1.86 1.97 1.95 1.89 1.74 1.58 1.38 1.30 1.29 1.25 1.25 1.35 1.53 1.59 1.54 1.48 1.50 1.47 1.35 1.30 1.38 1.53 1.61 1.60 1.53 1.45 1.45 1.48 1.71 2.01 2.20 2.24 2.14 1.94 1.62 1.36
1.96 1.83 1.64 1.64 1.83 1.85 1.83 1.83 1.75 1.84 1.91 1.85 1.72 1.64 1.61 1.54 1.47 1.37 1.37 1.48 1.76 1.85 1.70 1.60 1.57 1.51 1.37 1.31 1.31 1.33 1.40 1.42 1.29 1.24 1.26 1.27 1.37 1.57 1.87 2.04 2.00 1.92 1.68 1.27
1.91 2.01 1.91 1.85 1.90 1.92 1.87 1.75 1.68 1.76 1.85 1.90 1.86 1.81 1.84 1.82 1.78 1.75 1.74 1.77 1.89 1.93 1.72 1.60 1.56 1.45 1.34 1.33 1.35 1.29 1.27 1.31 1.23 1.08 1.12 1.17 1.26 1.45 1.72 1.91 1.88 1.79 1.62 1.32
1.65 1.69 1.71 1.79 1.92 1.96 1.84 1.66 1.59 1.63 1.71 1.83 1.87 1.84 1.89 1.97 2.04 2.15 2.10 1.97 1.87 1.73 1.57 1.45 1.43 1.35 1.25 1.17 1.13 1.10 1.09 1.11 1.08 1.03 1.10 1.13 1.17 1.37 1.64 1.80 1.75 1.67 1.57 1.42
1.53 1.52 1.55 1.58 1.68 1.71 1.64 1.62 1.55 1.44 1.40 1.49 1.58 1.65 1.74 1.84 1.93 2.13 2.06 2.01 1.99 1.84 1.55 1.34 1.36 1.24 1.16 1.13 1.14 1.05 0.99 1.00 0.98 0.95 0.99 1.07 1.19 1.34 1.51 1.58 1.59 1.60 1.45 1.31
1.63 1.56 1.54 1.62 1.64 1.58 1.51 1.44 1.47 1.41 1.40 1.44 1.42 1.44 1.53 1.62 1.72 1.94 2.00 2.01 1.95 1.75 1.49 1.32 1.17 1.08 1.02 0.97 1.02 1.01 1.05 1.12 1.12 1.13 1.14 1.21 1.28 1.38 1.45 1.45 1.40 1.39 1.36 1.34
1.58 1.54 1.46 1.57 1.57 1.44 1.33 1.25 1.33 1.34 1.35 1.33 1.27 1.27 1.30 1.37 1.48 1.71 2.02 2.17 1.88 1.52 1.31 1.26 1.10 0.98 0.91 0.93 0.92 0.90 0.98 1.10 1.18 1.25 1.28 1.33 1.37 1.39 1.39 1.38 1.31 1.28 1.27 1.28
1.46 1.42 1.38 1.40 1.44 1.39 1.18 1.14 1.19 1.21 1.21 1.13 1.06 1.11 1.17 1.29 1.39 1.53 1.71 1.95 1.89 1.73 1.32 1.08 0.99 0.93 0.90 0.91 0.83 0.84 0.90 0.97 1.11 1.15 1.18 1.26 1.34 1.41 1.38 1.32 1.26 1.22 1.23 1.25
1.54 1.37 1.34 1.39 1.46 1.35 1.19 1.12 1.13 1.23 1.18 1.11 1.10 1.13 1.14 1.26 1.35 1.59 1.74 1.62 1.60 1.68 1.34 1.15 1.16 1.05 0.89 0.83 0.82 0.81 0.85 0.92 1.07 1.16 1.18 1.22 1.25 1.27 1.28 1.24 1.22 1.21 1.22 1.17
1.61 1.45 1.38 1.36 1.37 1.32 1.30 1.17 1.09 1.21 1.19 1.08 1.04 1.03 1.07 1.18 1.20 1.25 1.43 1.56 1.58 1.54 1.26 1.18 1.17 1.01 0.85 0.79 0.88 0.92 1.01 1.09 1.11 1.11 1.07 1.12 1.16 1.13 1.13 1.07 1.03 1.07 1.09 1.08
1.64 1.52 1.43 1.37 1.37 1.30 1.21 1.14 1.14 1.19 1.13 1.08 1.09 1.10 1.07 1.10 1.20 1.25 1.28 1.31 1.46 1.47 1.28 1.22 1.11 1.02 0.89 0.83 0.94 1.08 1.14 1.05 1.02 1.02 1.02 1.04 1.10 1.09 1.04 1.05 1.07 1.02 1.00 1.01
1.62 1.56 1.52 1.39 1.31 1.23 1.14 1.13 1.20 1.23 1.16 1.17 1.18 1.12 1.08 1.09 1.16 1.21 1.23 1.21 1.25 1.36 1.27 1.11 0.95 0.91 0.93 0.95 0.96 1.02 1.01 0.96 0.95 0.96 0.97 0.99 1.02 1.04 1.00 1.02 1.03 0.99 0.99 1.01
1.58 1.54 1.52 1.43 1.35 1.25 1.20 1.23 1.25 1.28 1.25 1.24 1.25 1.23 1.23 1.22 1.27 1.32 1.25 1.18 1.15 1.13 1.07 0.96 0.86 0.81 0.82 0.86 0.84 0.85 0.87 0.89 0.87 0.87 0.92 0.95 0.97 0.99 0.94 0.93 0.92 0.93 0.94 0.93